TimeEDT,TemperatureF,Dew PointF,Humidity,Sea Level PressureIn,VisibilityMPH,Wind Direction,Wind SpeedMPH,Gust SpeedMPH,PrecipitationIn,Events,Conditions,WindDirDegrees,DateUTC
12:00 AM,37.4,30.2,75,30.02,9.0,Calm,Calm,-,N/A,,Clear,0,2012-10-07 04:00:00
1:00 AM,37.4,32.0,81,30.03,9.0,NE,3.5,-,N/A,,Mostly Cloudy,50,2012-10-07 05:00:00
1:59 AM,33.8,30.2,87,30.03,9.0,Calm,Calm,-,N/A,,Overcast,0,2012-10-07 05:59:00
2:00 AM,35,30,77,30.05,9,Calm,Calm,,,,Overcast,,2012-10-07 06:00:00
2:00 AM,33.8,30.2,87,30.05,9.0,Calm,Calm,-,N/A,,Overcast,0,2012-10-07 06:00:00
3:00 AM,37.4,32.0,81,30.07,9.0,NW,2.3,-,N/A,Rain,Light Rain,310,2012-10-07 07:00:00
3:05 AM,37.4,33.8,87,30.04,9.0,Calm,Calm,-,N/A,,Overcast,0,2012-10-07 07:05:00
4:15 AM,35.6,32.0,87,30.04,9.0,Calm,Calm,-,N/A,,Overcast,0,2012-10-07 08:15:00
4:25 AM,37.4,32.0,81,30.04,9.0,Calm,Calm,-,N/A,,Overcast,0,2012-10-07 08:25:00
5:00 AM,37.4,32.0,81,30.06,9.0,WSW,2.3,-,N/A,,Mostly Cloudy,240,2012-10-07 09:00:00
5:16 AM,35.6,32.0,87,30.03,9.0,SSW,5.8,-,N/A,,Overcast,200,2012-10-07 09:16:00
5:38 AM,37.4,32.0,81,30.04,9.0,West,2.3,-,N/A,,Overcast,270,2012-10-07 09:38:00
6:00 AM,37.4,33.8,87,30.07,9.0,NNW,2.3,-,N/A,,Overcast,330,2012-10-07 10:00:00
7:00 AM,37.4,33.8,87,30.06,9.0,Calm,Calm,-,N/A,,Overcast,0,2012-10-07 11:00:00
8:00 AM,38,34,81,30.06,9,Calm,Calm,,,,Overcast,,2012-10-07 12:00:00
8:00 AM,39.2,33.8,81,30.06,9.0,Calm,Calm,-,N/A,,Overcast,0,2012-10-07 12:00:00
9:00 AM,39.2,35.6,87,30.08,9.0,Calm,Calm,-,N/A,,Overcast,0,2012-10-07 13:00:00
10:00 AM,42.8,33.8,70,30.09,9.0,West,2.3,-,N/A,,Overcast,280,2012-10-07 14:00:00
11:00 AM,42.8,32.0,66,30.09,9.0,ENE,2.3,-,N/A,,Overcast,70,2012-10-07 15:00:00
11:39 AM,42.8,32.0,66,30.07,9.0,Calm,Calm,-,N/A,,Mostly Cloudy,0,2012-10-07 15:39:00
12:00 PM,42.8,32.0,66,30.10,9.0,SE,4.6,-,N/A,,Overcast,140,2012-10-07 16:00:00
12:40 PM,44.6,32.0,61,30.06,9.0,ESE,3.5,-,N/A,,Mostly Cloudy,110,2012-10-07 16:40:00
1:00 PM,44.6,32.0,61,30.08,9.0,Calm,Calm,-,N/A,,Partly Cloudy,0,2012-10-07 17:00:00
2:00 PM,46,32,46,30.06,9,Calm,Calm,,,,Overcast,,2012-10-07 18:00:00
2:00 PM,46.4,32.0,57,30.06,9.0,Calm,Calm,-,N/A,,Overcast,0,2012-10-07 18:00:00
3:00 PM,44.6,33.8,66,30.05,9.0,WNW,8.1,-,N/A,,Overcast,300,2012-10-07 19:00:00
3:11 PM,44.6,35.6,71,30.03,9.0,NW,5.8,-,N/A,Rain,Light Rain,310,2012-10-07 19:11:00
4:00 PM,44.6,33.8,66,30.05,9.0,NNW,3.5,-,N/A,,Overcast,330,2012-10-07 20:00:00
5:00 PM,46.4,32.0,57,30.06,9.0,NNW,4.6,-,N/A,,Overcast,340,2012-10-07 21:00:00
6:00 PM,42.8,32.0,66,30.07,9.0,NNW,3.5,-,N/A,,Mostly Cloudy,330,2012-10-07 22:00:00
7:00 PM,41.0,33.8,76,30.09,9.0,Calm,Calm,-,N/A,,Mostly Cloudy,0,2012-10-07 23:00:00
8:00 PM,35,29,73,30.09,9,SW,2.3,,,,,220,2012-10-08 00:00:00
8:00 PM,35.6,30.2,81,30.09,9.0,SW,3.5,-,N/A,,Scattered Clouds,220,2012-10-08 00:00:00
9:00 PM,33.8,30.2,87,30.11,9.0,Calm,Calm,-,N/A,,Clear,0,2012-10-08 01:00:00
11:00 PM,30.2,24.8,80,30.12,9.0,SSW,2.3,-,N/A,,Clear,200,2012-10-08 03:00:00